Change the Weather History Date:

Thursday, February 17, 2011

  Actual Average Record
Temperature  
Mean Temperature 60 °F -  
Max Temperature 68 °F 44 °F 70 °F (1970)
Min Temperature 51 °F 19 °F -12 °F (1978)
Degree Days  
Heating Degree Days 6    
Growing Degree Days 10 (Base 50)    
Moisture  
Dew Point 42 °F    
Average Humidity 65    
Maximum Humidity 94    
Minimum Humidity 19    
Precipitation  
Precipitation 0.00 in - - ()
Sea Level Pressure  
Sea Level Pressure 29.53 in    
Wind  
Wind Speed 15 mph (SW)    
Max Wind Speed 24 mph    
Max Gust Speed 32 mph    
Visibility 10 miles    
Events      
Averages and records for this station are not official NWS values.
T = Trace of Precipitation, MM = Missing Value Source: NWS Daily Summary

Daily Weather History Graph

Daily Weather History Graph

Search for Another Location

Airport or City:

Trip Planner

Search our weather history database for the weather conditions in past years. The results will help you decide how hot, cold, wet, or windy it might be!

Date:

Astronomy

Feb. 17, 2011 Rise Set
Actual Time 7:18 AM CST 6:04 PM CST
Civil Twilight 6:50 AM CST 6:32 PM CST
Nautical Twilight 6:18 AM CST 7:04 PM CST
Astronomical Twilight 5:46 AM CST 7:35 PM CST
Moon 5:43 PM CST (2/17) 6:33 AM CST (2/17)
Length of Visible Light 11h 42m
Length of Day
10h 46m
Waxing Gibbous, 99% of the Moon is Illuminated
Feb 17
Waxing Gibbous
Feb 18
Full
Feb 24
Last Quarter
Mar 4
New
Mar 12
First Quarter

Hourly Weather History & Observations

Time (CST) Temp. Windchill Dew Point Humidity Pressure Visibility Wind Dir Wind Speed Gust Speed Precip Events Conditions
12:10 AM 52.9 °F - 48.9 °F 86% 29.51 in 10.0 mi SSE 11.5 mph - N/A   Clear
12:30 AM 52.9 °F - 48.9 °F 86% 29.51 in 10.0 mi South 12.7 mph - N/A   Clear
12:50 AM 53.2 °F - 49.1 °F 86% 29.51 in 10.0 mi South 13.8 mph 20.7 mph N/A   Clear
1:10 AM 53.2 °F - 49.1 °F 86% 29.50 in 10.0 mi South 16.1 mph 21.9 mph N/A   Clear
1:30 AM 53.4 °F - 49.5 °F 86% 29.49 in 10.0 mi South 17.3 mph 23.0 mph N/A   Clear
1:50 AM 53.6 °F - 50.0 °F 88% 29.49 in 10.0 mi South 18.4 mph - N/A   Clear
2:10 AM 53.6 °F - 50.0 °F 88% 29.49 in 10.0 mi South 18.4 mph 24.2 mph N/A   Clear
2:30 AM 53.1 °F - 50.2 °F 90% 29.49 in 10.0 mi South 15.0 mph - N/A   Clear
2:50 AM 52.7 °F - 50.2 °F 91% 29.49 in 10.0 mi South 13.8 mph 18.4 mph N/A   Clear
3:10 AM 52.7 °F - 50.4 °F 92% 29.48 in 10.0 mi South 12.7 mph 21.9 mph N/A   Clear
3:30 AM 52.3 °F - 50.2 °F 92% 29.48 in 10.0 mi South 12.7 mph 19.6 mph N/A   Clear
3:50 AM 51.8 °F - 50.0 °F 94% 29.47 in 10.0 mi South 11.5 mph - N/A   Clear
4:10 AM 51.4 °F - 49.8 °F 94% 29.47 in 10.0 mi South 11.5 mph - N/A   Clear
4:30 AM 52.0 °F - 50.2 °F 94% 29.46 in 10.0 mi South 12.7 mph - N/A   Clear
4:50 AM 51.8 °F - 50.2 °F 94% 29.46 in 10.0 mi South 9.2 mph - N/A   Clear
5:10 AM 52.0 °F - 50.0 °F 93% 29.46 in 10.0 mi South 15.0 mph 19.6 mph N/A   Clear
5:30 AM 52.0 °F - 50.0 °F 93% 29.45 in 10.0 mi South 16.1 mph - N/A   Clear
5:50 AM 52.0 °F - 50.2 °F 94% 29.45 in 10.0 mi SSW 19.6 mph 24.2 mph N/A   Clear
6:10 AM 51.8 °F - 50.0 °F 94% 29.44 in 10.0 mi SSW 20.7 mph 26.5 mph N/A   Clear
6:30 AM 52.0 °F - 50.0 °F 93% 29.45 in 10.0 mi SSW 15.0 mph 24.2 mph N/A   Clear
6:50 AM 51.8 °F - 49.6 °F 92% 29.44 in 10.0 mi SSW 15.0 mph 24.2 mph N/A   Clear
7:10 AM 51.4 °F - 49.3 °F 92% 29.45 in 10.0 mi SSW 16.1 mph 20.7 mph N/A   Clear
7:30 AM 51.3 °F - 49.3 °F 93% 29.46 in 10.0 mi SSW 12.7 mph 20.7 mph N/A   Clear
7:50 AM 51.3 °F - 49.3 °F 93% 29.47 in 10.0 mi SSW 6.9 mph - N/A   Clear
8:10 AM 51.3 °F - 49.1 °F 92% 29.48 in 10.0 mi South 8.1 mph - N/A   Clear
8:30 AM 51.8 °F - 49.8 °F 93% 29.48 in 10.0 mi SSW 11.5 mph - N/A   Clear
8:50 AM 52.5 °F - 50.0 °F 91% 29.49 in 10.0 mi SSW 11.5 mph - N/A   Clear
9:10 AM 53.2 °F - 50.5 °F 91% 29.49 in 10.0 mi South 9.2 mph - N/A   Clear
9:30 AM 54.1 °F - 50.7 °F 88% 29.48 in 10.0 mi SSW 16.1 mph 19.6 mph N/A   Clear
9:50 AM 54.9 °F - 50.7 °F 86% 29.48 in 10.0 mi SSW 11.5 mph - N/A   Clear
10:10 AM 56.5 °F - 50.7 °F 81% 29.48 in 10.0 mi SSW 12.7 mph - N/A   Clear
10:30 AM 57.0 °F - 48.9 °F 74% 29.49 in 10.0 mi SW 15.0 mph 23.0 mph N/A   Clear
10:50 AM 59.0 °F - 48.2 °F 67% 29.48 in 10.0 mi SW 13.8 mph - N/A   Clear
11:10 AM 60.1 °F - 43.7 °F 55% 29.49 in 10.0 mi SW 19.6 mph - N/A   Clear
11:30 AM 61.3 °F - 42.1 °F 49% 29.50 in 10.0 mi WSW 17.3 mph - N/A   Clear
11:50 AM 62.6 °F - 40.5 °F 44% 29.51 in 10.0 mi West 16.1 mph 24.2 mph N/A   Clear
12:10 PM 64.4 °F - 39.0 °F 39% 29.51 in 10.0 mi West 16.1 mph - N/A   Clear
12:30 PM 64.9 °F - 37.6 °F 36% 29.51 in 10.0 mi West 19.6 mph 24.2 mph N/A   Clear
12:50 PM 66.4 °F - 37.9 °F 35% 29.51 in 10.0 mi West 15.0 mph 21.9 mph N/A   Clear
1:10 PM 67.3 °F - 37.4 °F 33% 29.53 in 10.0 mi West 18.4 mph 28.8 mph N/A   Clear
1:30 PM 67.5 °F - 37.9 °F 34% 29.54 in 10.0 mi West 21.9 mph 28.8 mph N/A   Clear
1:50 PM 68.4 °F - 36.3 °F 31% 29.55 in 10.0 mi WNW 24.2 mph 28.8 mph N/A   Clear
2:10 PM 68.7 °F - 35.4 °F 29% 29.55 in 10.0 mi WNW 21.9 mph 27.6 mph N/A   Clear
2:30 PM 68.5 °F - 33.3 °F 27% 29.56 in 10.0 mi WNW 20.7 mph 28.8 mph N/A   Clear
2:50 PM 68.9 °F - 33.8 °F 27% 29.56 in 10.0 mi NW 20.7 mph 25.3 mph N/A   Clear
3:10 PM 68.4 °F - 33.4 °F 27% 29.59 in 10.0 mi WNW 18.4 mph 26.5 mph N/A   Clear
3:30 PM 68.4 °F - 32.0 °F 26% 29.60 in 10.0 mi WNW 20.7 mph 28.8 mph N/A   Clear
3:50 PM 67.6 °F - 27.7 °F 22% 29.62 in 10.0 mi WNW 20.7 mph 26.5 mph N/A   Clear
4:10 PM 67.1 °F - 25.9 °F 21% 29.64 in 10.0 mi WNW 23.0 mph 28.8 mph N/A   Clear
4:30 PM 66.2 °F - 22.1 °F 19% 29.67 in 10.0 mi WNW 23.0 mph 32.2 mph N/A   Clear
4:50 PM 64.4 °F - 22.1 °F 20% 29.70 in 10.0 mi NW 19.6 mph 25.3 mph N/A   Clear
5:10 PM 62.8 °F - 23.5 °F 22% 29.71 in 10.0 mi NW 18.4 mph - N/A   Clear
5:30 PM 60.6 °F - 22.6 °F 23% 29.73 in 10.0 mi NW 15.0 mph - N/A   Clear
5:50 PM 58.1 °F - 23.9 °F 27% 29.75 in 10.0 mi NW 10.4 mph - N/A   Clear
6:10 PM 54.5 °F - 23.9 °F 31% 29.77 in 10.0 mi WNW 6.9 mph - N/A   Clear
6:30 PM 52.7 °F - 24.6 °F 34% 29.78 in 10.0 mi WNW 9.2 mph - N/A   Clear
6:50 PM 52.0 °F - 25.3 °F 36% 29.80 in 10.0 mi WNW 8.1 mph - N/A   Clear
7:10 PM 51.8 °F - 23.5 °F 33% 29.82 in 10.0 mi WNW 9.2 mph - N/A   Clear
7:30 PM 45.9 °F 40.8 °F 25.7 °F 45% 29.83 in 10.0 mi NW 10.4 mph - N/A   Clear
7:50 PM 45.3 °F 41.1 °F 25.5 °F 46% 29.85 in 10.0 mi WNW 8.1 mph - N/A   Clear
8:10 PM 45.3 °F 41.1 °F 23.9 °F 43% 29.86 in 10.0 mi WNW 8.1 mph - N/A   Clear
8:30 PM 41.4 °F 36.2 °F 25.5 °F 53% 29.88 in 10.0 mi NW 8.1 mph - N/A   Clear
8:50 PM 38.7 °F 36.3 °F 25.3 °F 59% 29.90 in 10.0 mi SW 3.5 mph - N/A   Clear
9:10 PM 40.3 °F - 24.8 °F 54% 29.91 in 10.0 mi Calm Calm - N/A   Clear
9:30 PM 37.9 °F 34.4 °F 23.7 °F 57% 29.91 in 10.0 mi WNW 4.6 mph - N/A   Clear
9:50 PM 35.2 °F 32.4 °F 25.3 °F 67% 29.94 in 10.0 mi West 3.5 mph - N/A   Clear
10:10 PM 35.8 °F 31.9 °F 24.8 °F 64% 29.95 in 10.0 mi WNW 4.6 mph - N/A   Clear
10:30 PM 34.3 °F 26.5 °F 24.8 °F 68% 29.95 in 10.0 mi NW 10.4 mph - N/A   Clear
10:50 PM 34.5 °F 26.2 °F 23.9 °F 65% 29.96 in 10.0 mi NNW 11.5 mph - N/A   Clear
11:10 PM 38.1 °F 30.7 °F 22.5 °F 53% 29.97 in 10.0 mi NNW 11.5 mph - N/A   Clear
11:30 PM 36.0 °F 30.3 °F 22.3 °F 58% 29.97 in 10.0 mi North 6.9 mph - N/A   Clear
11:50 PM 36.1 °F 31.4 °F 21.7 °F 56% 29.99 in 10.0 mi North 5.8 mph - N/A   Clear